Weather in Sarigol

Turkey     38°14′12″N   28°41′57″E
temp.,
°C
wind,
m/s
gust,
m/s
humid.,
%
clouds,
%
prec.,
mm/h
press.,
hPa
HPBL,
m
17 june, thu
thu1700:00+15nw22805 0.0 101619
03:00+14w11900 0.1 101711
06:00+13se11890 0.0 101611
09:00+19nnw116129 0.0 1017759
12:00+22nnw334517 0.0 10171642
15:00+25nw443836 0.0 10161986
18:00+24nw44406 0.0 10161725
21:00+20wnw22510 0.0 101612
18 june, fri
fri1800:00+18wnw22580 0.0 101711
03:00+16wnw22705 0.0 101711
06:00+15e00770 0.0 101611
09:00+21nnw11530 0.0 1016531
12:00+26nw22360 0.0 10141618
15:00+29nw43280 0.0 10122336
18:00+29nw43280 0.0 10112060
21:00+23nw4746100 0.1 1011130
19 june, sat
sat1900:00+20nw33601 0.3 101235
03:00+18wnw22680 0.3 101221
06:00+17nw11795 0.5 101211
09:00+21nnw11600 0.5 1011489
12:00+27nw43400 0.0 10101425
15:00+29wnw433395 0.1 10081822
18:00+27nw663595 0.1 10081542
21:00+23wnw334383 0.1 100929
20 june, sun
sun2000:00+20wnw22630 0.0 101017
03:00+18wnw22743 0.0 101014
06:00+17wnw11825 0.0 101111
09:00+22nw12575 0.0 1011510
12:00+27nw323887 0.0 10101357
15:00+28nw5435100 0.1 10081769
18:00+20sse6677100 2.6 1010214
21:00+20se227171 3.4 101089
21 june, mon
mon2100:00+19e117439 1.4 101118
03:00+17nw018095 1.8 101111
06:00+17wnw11842 0.0 101111
09:00+21nw11652 0.0 1012505
12:00+26nw33410 0.0 10111487
15:00+29nw543445 0.0 10092093
18:00+28nw56310 0.1 10092124
21:00+24nnw47500 0.1 1011251